Regional Weather Roundup
Issued by NWS Albany, NY

Home | Current Version | Previous Version | Text Only | Print | Product List | Glossary On
Versions: 1 2 3 4 5 6 7 8 9 10 11 12 13 14 15 16 17 18 19 20 21 22 23 24 25 26 27 28 29 30 31 32 33 34 35 36 37 38 39 40 41 42 43 44 45 46 47 48 49 50
000
ASUS41 KALY 211910
RWRALY

NEW YORK STATE HOURLY WEATHER ROUNDUP
NATIONAL WEATHER SERVICE ALBANY NY
300 PM EDT SUN SEP 21 2014

NOTE: "FAIR" INDICATES FEW OR NO CLOUDS BELOW 12,000 FEET WITH NO
SIGNIFICANT WEATHER AND/OR NO OBSTRUCTIONS TO VISIBILITY.

NYZ032-033-038>043-046>054-057>066-NYZ062>081-212000-
EAST


CITY           SKY/WX    TMP DP  RH WIND       PRES   REMARKS
ALBANY         PTSUNNY   81  56  42 S15       29.67F
GLENS FALLS    MOSUNNY   79  58  48 S9        29.66F
POUGHKEEPSIE   PTSUNNY   78  66  66 SE7       29.69F
NEWBURGH       PTSUNNY   77  68  73 SE9       29.73
MONTGOMERY     PTSUNNY   79  65  62 SE7       29.69F
WHITE PLAINS   CLOUDY    73  68  84 NW8       29.72F
ISLIP          CLOUDY    75  69  81 S6        29.70F
NEW YORK CITY  CLOUDY    73  66  78 CALM      29.71F
CENTRAL PARK   CLOUDY    74  67  78 CALM      29.75F HAZE
$$

NYZ005>009-017-018-044>046-055-056-212000-
CENTRAL


CITY           SKY/WX    TMP DP  RH WIND       PRES   REMARKS
FULTON         MOSUNNY   78  65  63 S9        29.57F
SYRACUSE       LGT RAIN  72  66  81 S8        29.58F
ROME           CLOUDY    73  65  75 SE8       29.60F
ELMIRA         MOSUNNY   78  65  63 SW15      29.62F
BINGHAMTON     MOSUNNY   75  59  57 S13G25    29.66F
MONTICELLO     MOSUNNY   75  59  57 MISG      29.74F
$$

NYZ026>034-041>043-212000-
NORTH


CITY           SKY/WX    TMP DP  RH WIND       PRES   REMARKS
WATERTOWN      MOSUNNY   77  62  59 S13G24    29.54F
FORT DRUM      NOT AVBL
MASSENA        CLOUDY    72  67  84 S12G21    29.55F
SARANAC LAKE   CLOUDY    70  57  63 SW14      29.63F
PLATTSBURGH    PTSUNNY   73  61  65 SE15      29.58F
$$

NYZ001>004-010>016-019>021-212000-
WEST


CITY           SKY/WX    TMP DP  RH WIND       PRES   REMARKS
NIAGARA FALLS  MOSUNNY   75  60  59 SW17G31   29.56S
BUFFALO        MOSUNNY   72  60  66 SW18G29   29.59S
DUNKIRK        MOSUNNY   70  61  73 W22G35    29.63S
JAMESTOWN      PTSUNNY   66  57  72 W21G29    29.66S
WELLSVILLE     CLOUDY    71  60  68 SW10G18   29.67F
ROCHESTER      PTSUNNY   74  61  63 W15G22    29.58S
PENN YAN       PTSUNNY   77  63  61 SW9       29.60F
$$

             KEY
       WCI = WIND CHILL INDEX
       VSB = VISIBILITY
       HX  = HEAT INDEX
$$


USA.gov is the U.S. government's official web portal to all federal, state and local government web resources and services.